Change the Weather History Date:

Sunday, October 21, 2012

  Actual Average (KMKC) Record (KMKC)
Temperature  
Mean Temperature 60 °F -  
Max Temperature 77 °F 64 °F 80 °F (1999)
Min Temperature 44 °F 46 °F 35 °F (2011)
Degree Days  
Heating Degree Days 4    
Growing Degree Days 10 (Base 50)    
Moisture  
Dew Point 55 °F    
Average Humidity 77    
Maximum Humidity 93    
Minimum Humidity 57    
Precipitation  
Precipitation 0.00 in - - ()
Sea Level Pressure  
Sea Level Pressure 29.79 in    
Wind  
Wind Speed 3 mph ()    
Max Wind Speed 13 mph    
Max Gust Speed 17 mph    
Visibility 10.0 miles    
Events      
Averages and records for this station are not official NWS values.
T = Trace of Precipitation, MM = Missing Value Source: Averaged Metar Reports

Daily Weather History Graph

Daily Weather History Graph

Search for Another Location

Airport or City:

Trip Planner

Search our weather history database for the weather conditions in past years. The results will help you decide how hot, cold, wet, or windy it might be!

Date:

Astronomy

Oct. 21, 2012 Rise Set
Actual Time 7:33 AM CDT 6:29 PM CDT
Civil Twilight 7:06 AM CDT 6:56 PM CDT
Nautical Twilight 6:35 AM CDT 7:27 PM CDT
Astronomical Twilight 6:04 AM CDT 7:58 PM CDT
Moon 1:54 PM CDT (10/21) No Moon Set
Length of Visible Light 11h 49m
Length of Day
10h 55m
Waxing Crescent, 45% of the Moon is Illuminated
Oct 21
Waxing Crescent
Oct 21
First Quarter
Oct 29
Full
Nov 6
Last Quarter
Nov 13
New

Hourly Weather History & Observations

Time (CDT) Temp. Dew Point Humidity Pressure Visibility Wind Dir Wind Speed Gust Speed Precip Events Conditions
12:35 AM 53.6 °F 42.8 °F 67% 29.77 in 10.0 mi Calm Calm - N/A   Clear
12:55 AM 53.6 °F 42.8 °F 67% 29.77 in 10.0 mi Calm Calm - N/A   Clear
1:15 AM 53.6 °F 42.8 °F 67% 29.77 in 10.0 mi Calm Calm - N/A   Clear
1:35 AM 51.8 °F 42.8 °F 71% 29.77 in 10.0 mi Calm Calm - N/A   Clear
1:55 AM 51.8 °F 42.8 °F 71% 29.77 in 10.0 mi Calm Calm - N/A   Clear
2:15 AM 50.0 °F 42.8 °F 76% 29.78 in 10.0 mi Calm Calm - N/A   Clear
2:35 AM 48.2 °F 42.8 °F 82% 29.78 in 10.0 mi Calm Calm - N/A   Clear
2:55 AM 46.4 °F 42.8 °F 87% 29.78 in 10.0 mi Calm Calm - N/A   Clear
3:15 AM 46.4 °F 42.8 °F 87% 29.78 in 10.0 mi Calm Calm - N/A   Clear
3:35 AM 46.4 °F 42.8 °F 87% 29.78 in 10.0 mi Calm Calm - N/A   Clear
3:55 AM 46.4 °F 42.8 °F 87% 29.78 in 10.0 mi Calm Calm - N/A   Clear
4:15 AM 46.4 °F 42.8 °F 87% 29.78 in 10.0 mi Calm Calm - N/A   Clear
4:35 AM 46.4 °F 42.8 °F 87% 29.79 in 10.0 mi Calm Calm - N/A   Clear
4:55 AM 46.4 °F 44.6 °F 93% 29.79 in 10.0 mi Calm Calm - N/A   Unknown
5:15 AM 46.4 °F 42.8 °F 87% 29.79 in 10.0 mi Calm Calm - N/A   Clear
5:35 AM 44.6 °F 42.8 °F 93% 29.80 in 10.0 mi Calm Calm - N/A   Clear
6:15 AM 44.6 °F 42.8 °F 93% 29.80 in 10.0 mi Calm Calm - N/A   Clear
6:35 AM 44.6 °F 42.8 °F 93% 29.80 in 10.0 mi Calm Calm - N/A   Clear
6:55 AM 44.6 °F 42.8 °F 93% 29.80 in 10.0 mi Calm Calm - N/A   Clear
7:15 AM 44.6 °F 42.8 °F 93% 29.81 in 10.0 mi Calm Calm - N/A   Clear
7:35 AM 44.6 °F 42.8 °F 93% 29.81 in 10.0 mi Calm Calm - N/A   Clear
8:15 AM 44.6 °F 42.8 °F 93% 29.81 in 10.0 mi Calm Calm - N/A   Scattered Clouds
8:35 AM 46.4 °F 44.6 °F 93% 29.82 in 10.0 mi Calm Calm - N/A   Unknown
8:55 AM 50.0 °F 46.4 °F 87% 29.82 in 10.0 mi Calm Calm - N/A   Clear
9:15 AM 55.4 °F 48.2 °F 77% 29.82 in 10.0 mi ESE 4.6 mph - N/A   Clear
9:35 AM 57.2 °F 50.0 °F 77% 29.83 in 10.0 mi SE 4.6 mph - N/A   Clear
9:55 AM 59.0 °F 50.0 °F 72% 29.83 in 10.0 mi SE 5.8 mph - N/A   Clear
10:15 AM 60.8 °F 51.8 °F 72% 29.84 in 10.0 mi SE 5.8 mph - N/A   Clear
10:35 AM 62.6 °F 51.8 °F 68% 29.84 in 10.0 mi SSE 6.9 mph - N/A   Clear
10:55 AM 64.4 °F 53.6 °F 68% 29.83 in 10.0 mi SE 5.8 mph - N/A   Unknown
11:15 AM 68.0 °F 53.6 °F 60% 29.83 in 10.0 mi SSE 4.6 mph - N/A   Clear
11:35 AM 69.8 °F 55.4 °F 60% 29.83 in 10.0 mi ESE 4.6 mph - N/A   Clear
11:55 AM 71.6 °F 57.2 °F 60% 29.82 in 10.0 mi SSE 5.8 mph - N/A   Clear
12:55 PM 75.2 °F 60.8 °F 61% 29.81 in 10.0 mi SSE 11.5 mph 17.3 mph N/A   Clear
1:15 PM 77.0 °F 60.8 °F 57% 29.80 in 10.0 mi SSE 12.7 mph 17.3 mph N/A   Clear
1:35 PM 75.2 °F 62.6 °F 65% 29.80 in 10.0 mi SSE 10.4 mph - N/A   Scattered Clouds
1:55 PM 75.2 °F 62.6 °F 65% 29.79 in 10.0 mi SE 10.4 mph 16.1 mph N/A   Overcast
2:15 PM 75.2 °F 64.4 °F 69% 29.79 in 10.0 mi South 12.7 mph 17.3 mph N/A   Overcast
2:35 PM 73.4 °F 64.4 °F 73% 29.79 in 10.0 mi South 9.2 mph - N/A   Overcast
3:15 PM 73.4 °F 64.4 °F 73% 29.77 in 10.0 mi SSE 5.8 mph - N/A   Overcast
3:35 PM 73.4 °F 64.4 °F 73% 29.77 in 10.0 mi SSE 9.2 mph 16.1 mph N/A   Overcast
3:55 PM 73.4 °F 64.4 °F 73% 29.77 in 10.0 mi SSE 10.4 mph - N/A   Overcast
4:15 PM 73.4 °F 64.4 °F 73% 29.77 in 10.0 mi SE 9.2 mph - N/A   Overcast
4:35 PM 73.4 °F 64.4 °F 73% 29.77 in 10.0 mi SE 8.1 mph - N/A   Overcast
4:55 PM 73.4 °F 64.4 °F 73% 29.76 in 10.0 mi SE 8.1 mph - N/A   Overcast
5:15 PM 75.2 °F 64.4 °F 69% 29.76 in 10.0 mi SE 6.9 mph - N/A   Overcast
5:35 PM 73.4 °F 64.4 °F 73% 29.77 in 10.0 mi SSE 5.8 mph - N/A   Overcast
5:55 PM 73.4 °F 64.4 °F 73% 29.77 in 10.0 mi SE 6.9 mph - N/A   Overcast
6:15 PM 73.4 °F 64.4 °F 73% 29.77 in 10.0 mi SE 8.1 mph - N/A   Overcast
6:35 PM 73.4 °F 64.4 °F 73% 29.77 in 10.0 mi SE 5.8 mph - N/A   Overcast
6:55 PM 73.4 °F 64.4 °F 73% 29.77 in 10.0 mi SE 6.9 mph - N/A   Overcast
7:15 PM 73.4 °F 64.4 °F 73% 29.77 in 10.0 mi SE 8.1 mph - N/A   Overcast
7:35 PM 73.4 °F 64.4 °F 73% 29.77 in 10.0 mi SE 9.2 mph - N/A   Overcast
7:55 PM 73.4 °F 64.4 °F 73% 29.77 in 10.0 mi ESE 8.1 mph - N/A   Overcast
8:15 PM 71.6 °F 64.4 °F 78% 29.78 in 10.0 mi SE 5.8 mph - N/A   Scattered Clouds
8:35 PM 71.6 °F 64.4 °F 78% 29.78 in 10.0 mi SE 4.6 mph - N/A   Clear
8:55 PM 71.6 °F 64.4 °F 78% 29.79 in 10.0 mi SE 4.6 mph - N/A   Scattered Clouds
9:15 PM 71.6 °F 64.4 °F 78% 29.80 in 10.0 mi ESE 4.6 mph - N/A   Overcast
9:35 PM 71.6 °F 64.4 °F 78% 29.80 in 10.0 mi ESE 5.8 mph - N/A   Overcast
9:55 PM 71.6 °F 64.4 °F 78% 29.81 in 10.0 mi SE 5.8 mph - N/A   Overcast
10:15 PM 71.6 °F 64.4 °F 78% 29.81 in 10.0 mi SE 4.6 mph - N/A   Overcast
10:35 PM 71.6 °F 64.4 °F 78% 29.81 in 10.0 mi ESE 6.9 mph - N/A   Mostly Cloudy
10:55 PM 71.6 °F 64.4 °F 78% 29.81 in 10.0 mi ESE 6.9 mph - N/A   Mostly Cloudy
11:15 PM 71.6 °F 64.4 °F 78% 29.81 in 10.0 mi SE 5.8 mph - N/A   Mostly Cloudy
11:55 PM 71.6 °F 64.4 °F 78% 29.82 in 10.0 mi SE 6.9 mph - N/A   Mostly Cloudy